Location: Halfweg
(53.1000°N, 6.6000°E)
Time: 04:48:00
(UTC+00:00)

Helios 1B rocket - Pass Details

Date: 15 May 2026
Orbit: 459 x 466 km, 98.2° (Epoch: 6 June)

Event Time Altitude Azimuth Distance (km) Brightness Sun altitude
Exits shadow 22:56:27 26° 231° (SW) 976 3.3 -17.5°
Maximum altitude 22:57:27 30° 263° (W) 872 3.3 -17.5°
Drops below altitude 10° 23:00:36 10° 326° (NW) 1,647 5.7 -17.6°
Sets 23:02:51 0° 338° (NNW) 2,529 7.2 -17.6°
